Retour au catalogue

SL-8 R/B

ActifLEO
NORAD 4255·ROCKET BODY·🇷🇺 Russia

Lancé Nov 24, 1969 depuis Plesetsk Cosmodrome

Loading…

Prochains Passages (prochaines 24 heures)

TLE

FraisSource: Space-Track

Époque: Sep 14, 2026, 11:12 UTC

1 04255U 69103B   26257.46727708  .00000014  00000-0  73360-4 0  9996
2 04255  74.0157 163.6315 0010607  43.0955 130.0714 13.29657163756206

Suivez SL-8 R/B en temps réel avec AllMySat

Download on the App Store